Location: Poughquag
(41.6090°N, 73.6820°W)
Time: 08:47:05
(UTC-04:00)

SR - Visible Passes

Search period start: 14 October 2019 00:00
Search period end: 24 October 2019 00:00
Orbit: 575 x 881 km, 66.7° (Epoch: 14 October)

Date Brightness Start Highest point End Pass type
(mag) Time Alt. Az. Time Alt. Az. Time Alt. Az.
18 Oct ? 06:21:38 10° N 06:24:50 15° NE 06:28:03 10° ENE visible
20 Oct ? 06:23:37 10° N 06:28:10 22° NE 06:32:43 10° E visible
21 Oct ? 05:34:49 10° N 05:37:52 14° NE 05:40:57 10° ENE visible
22 Oct ? 06:25:57 10° NNW 06:31:19 35° NE 06:36:40 10° ESE visible
23 Oct ? 05:36:47 10° N 05:41:13 21° NE 05:45:40 10° E visible
